Regional Weather Roundup
Issued by NWS

Home | Current Version | Previous Version | Graphics & Text | Print | Product List | Glossary On
Versions: 1 2 3 4 5 6 7 8 9 10 11 12 13 14 15 16 17 18 19 20 21 22 23 24 25 26 27 28 29 30 31 32 33 34 35 36 37 38 39 40 41 42 43 44 45 46 47 48 49 50
000
ASUS44 KMEG 110000
RWRTN
TENNESSEE HOURLY STATE WEATHER ROUNDUP
NATIONAL WEATHER SERVICE MEMPHIS TN
600 PM CST WED FEB 10 2016

TNZ002-004-019-021-049-052-054-088>092-110100-
WEST TENNESSEE

CITY           SKY/WX    TMP DP  RH WIND       PRES   REMARKS
MEMPHIS INTL   PTCLDY    39  16  39 S6        30.13F WCI  35
NWS MEMPHIS      N/A     39 N/A N/A MISG        N/A
JACKSON        PTCLDY    31   7  36 NE5       30.17R WCI  26
DYERSBURG      CLOUDY    30  10  43 E6        30.19R WCI  24
UNION CITY     CLEAR     27  10  50 CALM      30.16F
PARIS          CLOUDY    25  16  68 CALM      30.17S
$$

TNZ008-025-027-028-033-062-065-066-110100-
NORTH MIDDLE TENNESSEE

CITY           SKY/WX    TMP DP  RH WIND       PRES   REMARKS
NASHVILLE      LGT SNOW  25  20  81 W6        30.19R VSB 1   WCI  18
CLARKSVILLE    LGT SNOW  24  20  84 W5        30.19R FOG     WCI  18
COOKEVILLE     PTCLDY    27  12  54 W6        30.11S WCI  20
CROSSVILLE     CLOUDY    22   8  55 W9        30.05S WCI  12
$$

TNZ061-075-076-078-094-096-097-110100-
SOUTH MIDDLE TENNESSEE

CITY           SKY/WX    TMP DP  RH WIND       PRES   REMARKS
TULLAHOMA      CLOUDY    25  19  80 W8        30.15R WCI  16
WINCHESTER     CLOUDY    27  18  69 W7        30.15R WCI  19
MCMINNVILLE    PTCLDY    25  18  74 W10       30.13R WCI  15
COLUMBIA       CLOUDY    27  23  86 CALM      30.16R
SHELBYVILLE    CLOUDY    27  21  80 W7        30.18R WCI  19
$$

TNZ017-018-042-046-047-110100-
NORTHEAST TENNESSEE

CITY           SKY/WX    TMP DP  RH WIND       PRES   REMARKS
TRI CITIES     MOCLDY    22   6  50 W8        30.02R WCI  12
$$

TNZ012-013-036-069-073-074-110100-
CENTRAL EAST TENNESSEE

CITY           SKY/WX    TMP DP  RH WIND       PRES   REMARKS
KNOXVILLE      CLOUDY    27   8  44 SW15      30.10  WCI  15
OAK RIDGE      CLOUDY    28   8  43 W6        30.12R WCI  22
GATLINBURG     PTCLDY    25   5  42 W9        30.09R WCI  15
$$

TNZ083-085-099-110100-
SOUTHEAST TENNESSEE

CITY           SKY/WX    TMP DP  RH WIND       PRES   REMARKS
CHATTANOOGA    FLURRIES  32   9  38 W9        30.14R WCI  24
$$

SKY/WX REPORTED AS FAIR MEANS FEW OR NO CLOUDS BELOW
12 THOUSAND FEET.




USA.gov is the U.S. government's official web portal to all federal, state and local government web resources and services.